Wind_Speed
8 7 7 7 7 7 7 6 6 6 7 7 7 8 8 8 9 9 9 10 10 10 10 11 10 10 12 13 13 13 14 15 14 13 14 13 8 7 9 8 10 15 18 17 15 15 14 14 14 13 11 8 8 7 8 8 6 5 6 7 7 7 4 1 2 3 3 2 5 3 3 4 5 3 4 4 8 6 5 6 6 9 9 10 11 10 13 17
8 7 7 7 7 7 7 7 6 7 7 8 8 8 8 9 9 9 10 10 10 11 11 12 11 10 12 13 14 13 14 15 16 16 14 14 9 6 10 11 12 17 20 17 17 18 14 13 14 13 10 7 7 7 7 8 7 7 6 6 8 5 2 5 4 5 4 4 4 4 4 4 5 4 4 6 5 4 8 8 11 7 8 10 12 12 13 16
8 8 8 8 8 7 7 7 7 8 8 8 8 9 9 9 10 10 10 10 11 11 12 13 12 11 11 12 14 11 13 16 16 12 11 13 10 5 7 11 15 19 22 18 17 18 14 13 14 13 10 7 7 7 7 7 7 8 7 7 7 3 4 3 2 3 4 6 6 5 5 5 5 5 5 7 7 8 7 8 10 4 7 8 9 12 14 15
9 8 8 8 8 8 8 8 8 8 8 8 8 9 9 9 10 10 11 11 11 12 13 13 12 12 11 12 12 9 12 15 8 5 12 11 7 6 7 11 17 22 22 17 15 17 14 12 13 12 10 7 7 7 8 8 7 7 7 10 4 5 3 1 2 3 3 6 7 6 5 7 5 5 7 7 8 7 2 6 8 7 8 7 8 10 12 13
10 9 9 9 9 9 9 9 9 9 9 9 9 9 9 10 11 11 11 12 12 13 13 13 12 11 11 11 10 9 11 8 4 11 9 7 7 8 8 11 19 23 21 16 15 17 14 11 12 12 10 8 8 8 9 9 7 7 8 12 8 5 4 1 1 2 4 6 7 7 7 6 6 6 8 7 9 4 6 4 6 10 11 10 10 9 11 11
10 10 10 10 9 10 10 10 9 9 10 10 10 10 10 10 11 11 12 12 12 13 13 12 11 11 10 10 9 9 10 3 6 7 3 6 8 9 8 13 21 22 17 15 15 16 13 12 11 10 9 8 9 9 9 10 9 8 8 10 9 7 7 2 3 4 5 7 8 7 7 7 6 8 6 6 8 6 8 3 4 10 11 9 11 11 12 12
10 10 10 10 10 11 11 11 10 10 11 10 11 10 10 11 11 12 12 13 13 13 13 12 10 9 10 11 9 9 11 5 4 1 5 6 6 6 10 17 23 20 15 15 15 14 12 13 13 10 9 8 9 9 9 9 10 10 8 7 6 6 8 7 6 6 7 8 8 8 8 7 9 8 4 6 6 5 4 1 5 10 12 11 13 12 12 11
10 10 10 11 11 11 11 11 11 11 11 11 11 11 11 11 11 12 12 13 13 13 12 11 9 8 9 11 9 9 9 3 5 1 6 2 4 11 16 19 21 16 15 16 15 13 12 13 13 10 9 8 6 8 8 7 11 12 11 8 5 5 7 7 7 8 8 7 7 9 10 9 9 8 7 8 3 3 1 2 7 9 11 11 11 12 12 10
10 10 10 11 12 12 12 12 12 12 13 13 12 12 12 12 12 12 12 13 13 14 13 10 8 6 7 9 11 8 2 6 7 1 1 6 11 18 18 17 18 15 14 15 13 13 11 10 13 10 7 6 4 7 8 8 8 9 12 10 8 8 7 7 9 9 8 7 7 9 10 9 8 8 9 7 1 3 2 4 8 9 9 8 10 11 11 11
10 11 11 11 12 13 13 13 14 13 14 14 13 12 12 12 13 12 13 13 13 14 13 11 7 5 8 9 11 6 5 8 6 5 6 10 15 18 16 14 16 15 13 13 12 13 10 8 10 7 6 6 4 7 10 9 3 2 8 10 10 11 8 8 9 8 9 8 8 10 10 9 8 7 7 5 3 1 5 6 8 9 8 9 10 11 10 11
10 11 11 11 12 13 13 14 14 14 14 14 13 13 13 13 13 13 14 14 15 14 13 12 5 5 11 9 9 4 6 6 5 8 9 12 15 16 14 13 15 13 11 11 11 12 10 8 6 4 4 5 5 8 10 10 6 3 5 7 10 12 10 10 10 9 9 7 9 10 10 10 8 10 9 6 5 5 6 7 9 9 8 10 10 10 8 9
9 10 11 12 13 14 14 15 15 15 15 14 14 13 13 14 14 14 14 15 15 14 13 10 3 6 11 9 10 5 4 5 5 8 11 13 14 13 12 13 13 10 9 9 10 10 10 7 7 8 3 2 6 7 7 10 9 6 6 9 11 12 12 13 11 9 9 7 5 5 9 11 10 14 13 9 7 7 7 7 8 9 8 8 8 8 6 8
9 10 11 12 13 14 15 15 15 15 16 15 14 14 14 14 14 15 15 15 14 12 12 6 4 8 10 7 7 5 3 5 8 9 12 13 11 10 10 12 11 7 5 6 7 8 8 5 9 12 5 5 6 2 1 7 8 7 9 9 9 10 11 13 11 8 9 6 2 4 8 9 13 19 14 11 9 9 8 8 9 9 8 9 8 8 8 9
9 10 11 12 13 14 15 16 16 16 16 16 15 14 14 14 14 15 14 12 11 10 8 4 5 7 8 7 2 8 7 6 9 11 12 12 11 10 10 11 9 7 4 4 3 5 7 6 9 11 7 9 5 2 4 7 6 8 9 8 7 8 6 11 10 7 8 5 6 8 7 8 13 17 13 10 10 10 9 9 10 9 8 9 9 9 9 9
10 10 11 12 13 14 15 16 17 16 16 16 15 15 14 14 13 12 9 8 9 5 3 6 8 6 7 8 4 9 10 9 11 14 14 13 13 11 11 11 9 7 5 4 3 3 6 7 8 8 7 9 7 4 8 7 6 8 8 7 8 7 4 12 9 8 7 4 8 10 6 9 7 12 13 10 10 10 9 9 9 9 9 8 8 10 10 9
11 11 11 12 13 14 16 16 17 17 17 17 16 14 14 13 10 8 6 5 4 4 8 6 9 9 7 3 6 7 10 11 13 15 15 14 13 11 12 11 10 9 7 5 4 4 7 8 8 8 7 8 8 7 7 7 7 7 7 7 7 8 6 8 9 9 6 2 7 9 7 9 3 13 10 8 10 10 11 11 10 9 9 8 8 8 9 10
10 11 11 12 13 14 16 16 17 17 17 17 16 13 11 11 6 3 3 0 2 6 8 7 5 9 8 1 5 8 11 11 12 17 16 15 13 11 12 11 10 10 9 7 6 6 8 8 7 7 8 7 7 8 7 7 7 7 7 7 6 7 5 3 8 9 7 5 8 9 8 11 5 12 10 7 10 11 12 13 12 10 9 9 9 8 8 8
11 11 12 13 13 14 15 16 17 17 18 17 13 10 9 7 3 2 1 4 5 7 9 8 5 6 7 8 6 5 12 10 10 16 16 16 15 12 12 11 10 10 9 8 8 8 8 8 7 7 7 7 8 8 8 8 8 7 8 8 7 6 7 6 3 7 8 7 8 8 8 12 11 5 6 8 9 11 13 11 9 11 10 9 9 8 6 7
11 11 12 13 13 14 15 16 16 17 18 16 10 7 7 4 4 7 9 8 8 7 4 5 9 4 1 9 7 6 11 12 10 12 14 16 16 14 13 11 10 11 10 7 9 10 8 7 8 7 7 9 11 10 12 11 6 7 6 7 8 7 8 7 2 6 4 6 8 9 9 10 13 13 9 9 8 10 12 8 7 10 9 9 8 7 7 9
12 12 12 13 13 14 15 15 16 17 17 15 11 7 5 4 5 6 8 10 11 11 9 3 12 7 2 6 8 8 10 10 9 11 13 16 17 15 13 11 11 11 10 8 9 10 8 7 8 9 10 12 13 13 15 11 5 7 6 4 8 8 5 5 4 4 2 5 8 9 11 12 12 14 11 8 8 10 12 11 11 11 10 9 8 8 8 9
12 12 12 13 14 14 15 15 16 16 14 13 12 8 4 4 4 1 1 9 15 17 16 9 11 11 5 2 5 7 8 9 10 10 13 16 17 14 12 12 11 9 11 10 8 7 8 8 10 12 13 12 11 13 14 8 3 7 8 7 8 8 9 6 5 4 4 4 8 9 11 13 12 12 12 8 9 11 14 14 13 14 13 8 6 8 7 6
13 12 12 14 14 14 15 16 16 14 11 9 10 10 5 7 5 5 5 8 11 15 15 13 12 11 8 6 4 3 6 10 11 11 14 15 16 13 11 13 12 10 11 11 8 7 8 9 12 13 13 11 8 8 10 6 6 8 8 8 8 7 10 6 6 5 6 4 7 10 10 12 12 12 14 12 10 11 14 15 14 15 13 10 9 10 10 9
13 12 13 13 14 15 16 15 14 12 10 8 10 10 5 5 4 6 6 7 9 12 14 13 13 11 11 11 9 8 10 10 11 13 16 14 14 13 12 13 13 11 12 12 10 7 7 9 14 15 11 9 6 5 7 7 7 8 8 8 8 9 10 6 5 7 7 5 7 10 9 9 10 11 13 14 11 11 14 16 16 15 13 15 15 12 12 12
13 12 13 13 15 15 14 15 14 11 10 11 12 10 5 4 5 7 6 7 8 8 9 8 9 11 10 8 10 13 13 10 11 13 18 16 13 12 12 12 13 12 11 14 13 11 10 6 9 13 9 8 9 8 9 7 7 9 10 10 9 11 11 5 4 4 5 8 10 10 8 7 10 12 13 13 12 12 12 14 15 15 14 14 14 13 13 13
13 13 13 14 15 14 14 14 10 6 7 10 10 8 4 3 4 7 6 6 6 6 7 6 7 7 6 5 8 12 12 11 13 12 18 17 14 11 11 10 10 12 12 15 13 12 12 3 3 7 8 9 11 9 10 9 7 9 11 13 13 13 11 6 7 6 6 9 10 12 9 7 11 16 15 13 13 14 12 13 15 14 14 13 12 14 12 12
13 13 13 13 14 13 10 7 2 3 6 7 3 2 2 2 3 5 5 5 5 7 9 8 8 7 8 8 9 11 11 12 15 14 17 18 16 11 9 8 7 11 13 13 10 8 9 6 7 8 8 10 13 10 12 11 8 8 9 12 13 11 10 10 12 10 7 8 5 9 9 6 9 12 12 12 13 13 12 14 15 13 13 14 12 13 12 11
13 12 12 13 13 12 8 5 5 5 6 2 2 1 2 2 3 4 4 5 5 7 9 8 6 6 8 8 11 11 5 6 13 16 16 17 17 12 10 10 8 10 10 8 7 7 8 7 7 10 10 10 11 9 11 11 9 8 4 5 8 9 11 11 12 10 8 9 4 6 9 9 9 7 7 10 12 12 14 15 14 14 13 14 14 12 16 14
12 12 12 13 12 10 9 11 10 8 2 3 1 2 2 3 4 4 5 4 3 6 6 6 5 5 6 7 13 11 1 5 10 15 17 18 17 12 11 12 10 11 11 8 7 7 10 11 8 10 11 9 9 9 11 11 11 7 2 2 6 8 10 10 10 9 9 10 7 9 11 8 8 8 7 10 12 13 13 12 11 11 11 11 14 11 14 12
13 12 12 13 12 8 9 11 11 8 4 3 2 3 4 5 5 5 5 3 4 4 3 5 5 7 8 7 13 12 4 5 5 9 17 17 16 13 10 12 12 12 12 10 10 7 9 11 10 11 10 8 9 9 9 10 10 8 3 5 6 7 9 9 9 9 8 10 10 11 11 8 8 8 8 9 10 9 7 6 5 5 7 8 10 8 11 11
13 13 12 13 11 6 7 11 13 11 6 3 4 5 6 6 5 5 5 2 4 5 5 5 6 8 10 9 11 12 10 8 3 8 15 14 16 15 9 10 11 11 12 11 12 9 5 5 6 8 9 9 9 9 9 10 10 6 3 6 8 8 9 8 8 8 8 9 10 14 14 10 8 5 2 1 3 2 3 4 4 3 6 7 9 8 9 11
13 13 12 12 10 8 7 6 5 6 5 4 5 6 6 5 5 6 4 2 3 6 6 7 8 9 11 10 9 11 13 10 8 11 12 11 14 14 9 8 8 9 11 11 12 14 9 8 5 7 10 10 10 11 11 11 11 7 5 7 8 7 7 7 7 7 8 9 10 14 16 14 10 2 2 4 5 5 3 3 3 3 5 6 7 7 7 10
14 15 13 13 13 12 12 5 3 1 3 3 6 6 6 5 6 7 4 3 3 6 5 6 8 8 9 8 6 11 12 10 10 12 12 11 12 12 12 10 8 9 11 10 11 12 11 9 8 9 12 12 11 9 9 9 9 10 8 8 8 7 7 7 7 7 8 9 10 12 12 11 6 2 4 4 5 4 2 1 2 4 5 4 4 5 6 9
16 17 16 14 14 16 17 11 6 5 3 5 6 6 5 5 6 6 5 5 2 3 2 3 5 6 7 7 7 11 11 10 11 12 13 14 12 13 15 15 13 11 9 9 10 10 9 10 12 11 10 12 13 9 8 8 9 11 9 8 9 7 7 7 7 7 8 8 11 9 6 7 5 3 5 5 5 3 2 2 1 2 3 4 5 5 5 6
18 18 17 15 15 17 16 12 9 8 6 6 6 6 6 7 5 4 5 4 4 3 2 3 5 7 9 10 7 11 10 10 13 12 12 14 11 11 14 17 18 14 8 8 9 9 10 9 12 13 10 12 15 13 10 9 9 11 10 9 9 7 7 6 6 7 7 7 9 9 6 7 6 3 4 5 4 3 2 3 2 0 1 4 6 7 6 6
17 14 13 13 14 16 15 12 9 7 7 6 6 6 7 7 5 5 4 3 5 2 3 4 6 8 10 9 5 8 9 7 13 13 11 12 11 10 11 14 17 15 9 8 7 8 12 9 10 14 12 14 16 15 13 10 9 9 10 10 9 8 7 5 5 5 5 5 6 8 6 2 3 6 5 4 4 3 2 3 4 3 4 5 6 7 8 7
12 7 8 10 11 11 13 13 10 8 7 6 7 7 7 6 3 1 1 3 2 2 2 5 8 8 8 8 7 10 9 6 11 12 9 12 12 12 12 12 15 16 12 9 5 6 10 8 8 14 15 15 15 14 14 12 7 6 9 10 9 8 8 7 7 5 5 6 6 6 5 4 6 6 6 6 5 5 4 4 5 6 6 6 6 6 6 5
8 6 7 8 8 8 11 13 11 9 7 6 7 7 5 4 1 4 4 3 2 3 6 6 6 6 8 8 8 11 10 7 10 10 9 11 11 12 14 12 13 17 15 11 6 5 7 6 8 13 14 13 13 14 16 14 10 5 6 7 8 9 9 6 6 6 6 8 7 8 10 6 5 3 5 6 5 5 5 4 4 5 6 5 5 5 6 6
8 6 5 5 6 8 11 13 12 9 6 6 8 8 6 1 1 2 3 3 4 3 6 6 2 4 7 6 6 9 10 7 9 10 8 8 8 11 14 12 12 16 17 14 8 5 6 6 7 11 12 12 12 12 13 15 16 12 6 4 5 8 8 6 6 6 7 8 6 9 12 5 3 3 4 5 4 5 5 5 4 4 5 5 5 4 5 7
8 6 4 5 6 8 12 14 11 8 6 7 7 6 6 3 1 1 3 3 4 4 5 5 2 3 6 6 5 6 7 7 8 8 8 8 5 4 7 8 10 13 14 14 9 5 5 6 6 9 11 11 10 9 9 11 15 15 10 7 6 6 6 6 6 6 7 8 7 9 9 2 4 3 4 4 4 5 6 6 5 5 5 6 7 6 4 4
7 4 4 7 8 10 13 12 9 7 6 7 6 3 4 4 2 1 2 3 4 4 4 4 3 4 5 7 6 5 6 7 7 6 7 8 6 4 6 6 7 11 12 14 12 7 5 6 5 7 10 10 8 8 10 10 11 12 10 9 8 7 6 5 4 5 8 6 5 8 6 1 2 2 3 5 4 4 6 7 5 6 7 7 9 8 6 6
6 3 4 9 10 11 12 8 7 6 6 6 6 3 2 0 1 3 3 2 4 5 4 5 5 5 4 5 6 6 5 7 7 6 7 6 4 4 5 3 6 9 10 12 11 7 5 6 6 6 7 9 9 11 14 14 11 11 10 10 10 8 7 7 6 6 7 6 6 7 3 2 1 2 2 3 4 4 4 7 6 6 8 9 10 11 10 9
5 2 7 12 12 10 8 6 5 6 7 4 3 1 3 1 3 3 3 4 5 5 4 5 6 6 5 5 6 5 5 7 7 6 7 4 3 4 3 3 6 8 7 8 9 7 6 5 8 9 7 8 9 10 12 11 10 10 10 10 10 9 8 8 6 6 6 6 8 8 3 4 1 3 5 5 7 7 6 6 7 7 8 9 10 11 11 10
4 3 7 13 13 9 6 5 5 6 5 1 1 1 2 2 5 3 3 5 5 4 4 5 5 6 6 4 5 6 4 6 6 6 7 3 3 8 3 3 6 8 6 6 6 7 6 5 8 9 7 7 7 7 7 7 8 10 9 8 9 9 8 7 5 5 5 3 5 7 4 4 3 3 6 6 6 7 8 7 7 7 6 8 10 11 10 10
4 3 5 11 12 9 4 3 5 6 5 1 3 4 3 3 5 4 4 5 4 3 4 5 5 5 4 3 6 7 4 4 5 7 6 3 3 9 7 1 6 7 3 1 1 4 5 6 8 8 7 8 8 7 9 9 9 8 8 10 11 10 9 8 4 3 4 5 7 7 2 4 5 4 6 6 5 6 7 7 7 6 6 8 10 9 8 8
3 4 4 8 10 8 5 3 4 3 5 4 5 5 4 4 4 4 5 3 2 3 3 4 4 4 5 5 6 8 7 5 4 6 5 2 4 6 3 2 5 2 3 5 3 2 5 5 8 8 8 9 6 5 5 5 7 10 10 11 9 9 11 10 5 3 5 9 11 8 0 4 5 7 8 7 6 6 7 6 7 7 7 8 8 7 7 7
3 4 4 5 6 6 4 3 4 3 3 4 5 5 5 5 4 3 5 5 3 4 5 4 4 5 6 7 6 7 9 7 5 6 5 1 2 1 3 4 2 5 6 5 3 4 5 5 7 8 7 6 3 3 6 7 6 9 11 11 8 7 10 10 7 7 4 5 6 1 6 8 8 9 8 7 6 7 7 6 7 7 7 8 8 7 7 7
3 3 4 4 4 5 4 5 5 2 1 3 3 3 5 6 4 5 5 5 3 4 5 5 5 5 6 6 6 7 8 7 7 7 7 3 3 2 0 4 6 8 7 3 2 4 5 6 9 9 7 6 3 2 6 7 5 7 7 9 9 7 8 10 10 8 3 3 3 4 7 7 8 9 8 6 6 6 7 7 7 8 8 8 8 8 8 8
3 1 3 2 2 3 3 3 4 2 2 4 3 2 4 6 5 5 4 3 3 4 4 4 5 6 5 5 5 5 6 7 6 5 6 5 3 4 2 3 6 5 4 3 4 3 2 5 8 9 6 5 3 1 4 5 2 2 3 5 6 6 8 11 11 6 2 2 1 5 7 4 6 9 8 7 6 6 7 7 8 8 9 9 9 9 9 9
3 1 3 1 2 2 3 2 1 3 4 4 2 3 4 5 5 3 3 3 4 4 4 5 5 4 3 5 6 4 3 4 4 1 3 6 5 3 1 4 4 3 3 4 6 5 2 2 5 7 9 5 3 1 1 5 5 2 2 1 1 3 4 4 3 4 3 1 4 10 12 8 7 8 8 8 7 7 7 7 9 9 10 10 10 9 9 9
3 0 3 3 2 3 3 2 3 3 3 2 2 3 4 4 3 2 2 3 4 4 4 6 6 4 3 4 3 1 1 2 1 1 3 4 5 3 1 2 3 2 3 3 3 4 2 2 5 6 8 7 4 3 2 3 7 3 4 5 4 1 1 4 5 5 3 3 8 12 12 9 6 6 8 8 7 8 8 8 9 9 10 11 10 9 9 9
4 3 2 3 3 3 1 3 3 4 5 3 3 4 3 3 3 2 3 3 3 4 4 5 5 4 4 4 1 3 3 3 2 2 4 4 4 3 1 3 4 2 2 2 1 2 0 3 4 4 7 6 6 7 6 3 7 6 3 6 7 4 3 4 5 6 5 4 7 7 5 5 5 6 8 8 8 9 9 9 9 8 9 10 10 9 9 9
4 3 4 4 2 2 3 3 4 4 3 2 1 3 2 2 3 3 3 3 4 4 2 3 4 4 5 6 3 1 2 4 4 4 4 5 4 1 2 2 2 2 0 2 2 2 2 3 3 2 4 5 4 5 6 5 6 6 1 5 6 5 3 3 4 6 7 2 4 3 3 7 9 8 8 9 9 9 9 8 8 8 9 9 10 9 9 9
Wind_Direction
327 330 329 328 327 328 329 328 328 324 323 319 318 318 313 312 308 307 305 302 302 299 299 299 300 305 305 308 303 306 314 305 291 262 240 245 243 225 238 235 206 184 173 178 182 184 188 197 197 192 203 197 214 226 190 213 233 221 231 236 238 233 249 16 122 50 5 53 58 1 354 320 314 351 334 283 232 220 204 184 90 69 79 91 107 133 148 153
329 332 330 328 328 328 328 325 322 323 322 319 318 317 313 310 308 306 305 302 298 301 303 301 303 305 302 303 303 310 314 294 277 264 242 235 234 235 240 225 201 182 176 186 189 188 188 191 189 188 204 196 202 207 181 203 219 224 231 231 239 237 36 19 11 25 346 339 1 314 334 316 305 341 320 293 277 251 225 155 92 78 106 112 127 148 163 163
330 330 330 327 326 326 325 322 321 323 320 319 318 315 313 312 311 308 306 304 300 302 301 301 305 304 301 301 302 313 311 290 272 252 212 209 225 251 246 208 192 180 180 191 193 192 196 191 186 191 207 206 199 191 189 196 203 226 239 234 240 306 19 35 1 8 342 331 319 309 333 292 293 330 292 295 294 260 239 125 105 138 127 123 143 153 167 169
331 328 327 326 325 324 321 320 321 321 319 319 318 314 314 313 311 310 307 305 304 303 302 304 306 308 309 300 304 317 301 281 263 151 160 196 243 274 253 202 187 181 187 201 199 200 207 195 189 203 216 214 202 200 209 195 197 222 229 243 264 6 320 151 32 346 332 315 305 310 301 280 313 315 275 290 273 242 221 117 141 160 135 153 164 156 170 170
327 326 326 324 323 321 319 320 320 320 319 316 316 314 314 312 310 310 308 306 305 304 305 305 306 314 311 301 308 306 286 273 130 115 148 222 277 275 245 198 184 180 193 214 207 206 214 203 196 210 225 225 200 202 224 204 210 237 230 254 286 329 278 112 53 303 321 297 290 290 282 304 328 282 270 285 277 302 29 69 146 156 155 167 163 163 176 171
323 324 323 321 321 320 319 320 320 320 318 316 316 315 313 311 310 308 308 307 304 304 305 305 311 318 311 304 302 281 266 276 102 118 199 262 272 256 216 185 178 178 199 220 209 207 213 205 200 209 223 229 208 204 226 206 210 247 235 246 264 268 268 306 291 281 300 283 281 288 293 314 295 271 277 274 280 350 15 10 141 145 145 153 160 172 178 171
320 322 319 319 318 318 318 318 319 319 317 317 316 315 314 310 307 307 307 306 302 302 303 304 316 320 314 306 285 250 250 265 97 105 286 275 253 210 177 171 170 179 206 216 203 203 205 202 204 210 218 227 217 212 224 211 210 241 250 243 243 251 265 280 286 280 279 275 283 287 286 286 270 273 292 270 286 9 8 324 130 129 135 157 168 169 168 166
318 318 318 317 315 316 316 316 318 317 316 315 315 315 313 309 307 306 304 305 302 301 299 303 318 322 319 312 280 241 240 240 98 308 291 250 172 151 154 162 169 186 208 207 199 200 203 203 209 210 220 231 218 211 216 219 220 231 249 256 247 247 257 266 269 265 266 270 273 270 268 267 262 277 283 265 294 43 335 158 134 129 135 155 161 157 159 160
316 316 318 315 314 315 314 316 317 316 316 315 316 314 312 312 309 305 302 302 300 298 298 300 313 318 311 298 278 261 199 94 92 44 270 143 144 144 150 162 179 197 204 203 200 203 206 203 212 218 244 256 216 213 215 221 225 222 237 249 247 246 247 253 257 258 262 262 264 264 260 258 256 267 259 241 67 69 196 155 129 120 127 151 156 156 160 164
316 315 316 315 313 312 313 315 315 315 315 315 316 314 311 311 308 306 302 298 296 295 294 297 306 311 296 276 267 269 110 100 102 111 132 144 145 151 163 171 184 200 201 199 201 207 213 212 216 226 273 273 230 224 222 222 239 218 240 252 252 255 255 250 256 259 263 261 257 260 258 256 253 253 237 180 105 190 184 147 124 121 147 166 159 159 165 171
316 314 314 315 311 311 312 312 313 314 314 315 316 314 310 309 308 304 299 295 293 291 291 295 295 282 284 273 265 274 107 121 124 126 151 154 154 165 176 177 183 200 199 194 203 212 220 233 239 227 246 253 225 229 229 230 255 270 257 261 251 254 253 244 248 249 253 252 243 252 259 254 243 245 236 149 136 216 180 149 140 142 167 169 155 153 163 173
314 314 314 314 312 311 311 310 312 312 313 314 313 311 307 306 305 301 297 294 291 290 290 287 264 267 280 268 250 246 110 153 153 141 161 161 166 176 178 179 185 198 199 195 205 215 224 237 246 232 231 274 228 223 228 226 241 256 252 259 247 240 240 232 231 234 242 242 231 257 261 244 223 234 231 159 160 216 184 160 150 155 168 162 151 148 169 181
309 313 313 313 311 310 309 310 311 312 314 314 313 311 306 306 305 301 297 293 290 286 285 271 212 259 272 269 235 196 148 171 165 155 167 170 171 173 177 182 188 201 211 217 208 211 226 235 244 240 244 262 235 142 281 223 227 242 237 252 252 239 234 217 209 221 240 234 186 254 257 234 214 220 214 152 167 211 194 171 155 164 170 159 160 162 178 186
308 309 311 310 309 308 309 309 310 312 312 313 314 310 307 308 305 300 298 297 293 280 270 197 197 251 258 265 195 158 171 166 174 178 176 180 173 168 177 182 195 206 209 241 229 205 221 226 243 250 243 255 269 82 238 226 216 237 232 228 241 253 214 173 177 203 222 177 169 233 252 253 224 196 175 150 177 202 203 186 161 167 179 166 167 165 169 183
311 309 308 308 308 308 308 308 309 311 312 313 312 309 310 309 300 298 302 302 295 269 174 167 208 239 255 249 182 166 185 180 192 192 182 186 180 175 179 184 196 200 197 220 225 204 216 215 227 242 226 237 269 253 227 219 208 224 233 219 218 243 170 144 165 204 222 150 177 223 240 260 234 150 153 167 184 200 208 201 172 169 180 176 173 163 167 180
313 311 308 308 308 307 307 307 309 310 312 312 307 309 312 304 293 297 311 302 286 157 148 191 214 223 271 263 145 167 189 197 205 194 188 191 191 186 174 179 189 187 198 205 205 207 208 212 220 237 229 215 232 242 229 217 210 206 228 242 211 213 194 154 168 198 231 193 190 215 241 260 178 126 155 177 183 203 215 207 185 179 179 180 184 171 174 178
312 311 309 309 308 306 307 307 309 311 312 311 309 313 306 291 285 320 350 43 174 158 187 247 226 216 268 275 165 191 183 189 194 186 191 193 200 198 169 176 188 182 195 194 202 210 196 208 219 229 236 222 218 229 233 219 213 199 212 250 234 219 233 167 155 174 201 215 216 218 236 261 218 137 149 178 193 205 219 212 189 188 188 190 192 176 184 184
311 310 309 309 309 307 307 307 309 312 311 309 314 320 304 281 258 255 237 171 181 199 222 255 245 235 244 212 208 180 163 163 166 175 186 190 200 203 176 182 186 179 194 192 201 207 190 201 213 217 219 220 220 220 227 223 225 217 205 226 236 225 245 250 165 147 180 213 231 226 224 250 255 217 164 174 193 207 222 219 197 200 195 195 195 170 184 195
311 309 310 310 309 307 307 308 309 312 312 315 327 328 307 278 242 238 228 205 191 210 232 189 200 258 7 186 187 119 139 145 149 166 178 184 192 198 188 188 185 185 200 192 190 195 192 200 207 220 213 209 219 217 226 238 264 273 231 219 239 231 228 240 172 126 174 234 236 238 240 239 246 252 226 175 182 217 224 213 209 217 202 201 199 177 197 204
310 311 312 309 309 309 307 307 308 311 313 319 322 294 263 251 238 217 207 214 217 243 285 221 201 243 2 163 164 135 141 155 173 175 173 178 183 190 190 190 191 196 210 199 180 185 197 211 207 217 219 211 216 222 239 262 316 306 280 244 253 259 247 225 187 162 199 257 249 242 251 250 244 249 238 183 178 222 226 212 213 215 208 210 192 175 203 213
312 313 312 310 312 309 306 307 306 308 312 313 302 269 266 326 305 321 209 233 227 236 262 260 231 247 263 168 147 152 169 185 199 180 166 174 181 186 184 189 196 198 215 208 178 176 199 222 220 218 226 224 220 223 241 273 302 265 270 263 249 250 251 225 171 186 206 235 256 249 246 250 246 248 249 209 186 217 227 220 220 215 206 207 188 174 201 236
312 313 313 312 312 308 307 306 302 306 311 296 272 256 292 360 352 336 317 273 246 233 241 243 240 248 245 222 192 214 219 199 196 175 163 175 185 187 178 188 205 199 206 207 182 181 205 229 231 224 227 230 235 231 226 236 248 248 254 258 253 245 250 229 155 198 227 227 254 253 249 250 241 238 248 236 208 217 227 221 226 224 200 189 206 196 188 208
313 315 314 312 311 308 306 304 302 303 294 267 252 253 297 359 343 312 290 281 274 242 228 226 227 228 223 219 203 214 234 215 199 175 167 183 193 198 191 188 209 209 200 206 200 199 212 222 226 225 221 215 220 227 214 215 234 243 244 245 246 244 249 237 188 208 226 237 260 267 264 258 250 238 242 242 218 211 224 221 225 231 207 193 203 198 185 196
315 316 313 313 309 306 307 307 301 286 255 243 252 262 299 331 313 314 288 267 273 235 209 212 224 221 214 214 194 203 224 226 217 182 170 190 198 200 209 198 209 219 204 204 209 223 239 229 215 214 194 191 207 205 212 225 227 227 236 247 251 251 251 240 220 220 223 236 245 262 270 254 246 239 236 237 219 212 222 224 224 230 226 208 187 182 193 196
316 315 314 315 311 309 312 303 285 249 224 237 254 251 265 294 297 316 296 258 249 197 167 178 207 206 184 170 181 201 220 222 228 200 170 192 204 192 210 208 210 223 209 203 210 233 246 220 147 199 179 196 218 211 211 223 237 226 221 234 248 262 268 261 260 263 252 247 228 223 244 248 233 232 227 224 218 211 216 228 228 226 231 227 187 170 192 193
315 314 316 313 312 315 310 297 274 230 239 241 242 180 216 277 304 303 281 256 232 170 154 177 186 166 163 177 182 198 222 218 221 210 175 190 213 205 210 206 204 226 216 204 211 239 236 175 161 211 206 212 225 222 213 211 237 244 220 222 233 253 268 257 258 260 251 268 246 207 235 264 246 233 219 220 221 204 207 227 230 227 227 232 214 167 171 186
313 312 316 310 313 318 307 324 339 281 253 211 106 146 247 295 302 282 257 252 225 160 150 167 167 158 171 177 176 190 225 189 194 206 189 188 206 214 223 209 196 224 223 209 215 227 223 194 187 216 218 221 226 221 211 205 226 244 222 220 224 235 251 247 250 255 251 266 260 200 234 264 267 251 210 220 231 214 213 219 219 230 226 227 233 186 165 178
311 312 313 305 306 303 288 304 305 276 294 49 78 246 288 305 277 248 244 243 179 143 147 140 121 160 176 168 187 201 90 123 180 198 189 189 199 203 224 223 207 212 214 220 222 193 200 212 207 210 215 219 221 219 209 204 226 242 182 215 244 248 252 249 244 245 249 256 249 222 229 247 261 257 222 213 225 226 220 209 204 228 235 231 242 209 160 167
311 310 308 304 304 291 270 275 273 270 323 360 270 280 301 285 261 233 252 253 156 143 148 136 137 179 177 168 199 214 205 189 206 182 176 189 204 207 227 232 223 216 207 219 235 199 187 213 213 206 216 222 217 219 208 196 222 251 236 218 240 254 252 249 248 245 241 245 252 243 232 241 257 259 244 217 218 227 211 187 189 229 258 258 256 225 150 149
310 304 304 304 303 299 266 248 248 259 278 277 276 297 281 258 240 224 225 216 177 160 142 156 167 175 176 176 193 206 211 206 158 158 177 185 202 213 234 235 233 233 209 206 236 237 172 168 212 216 222 231 224 222 216 202 215 248 263 230 229 235 239 241 245 250 248 238 244 249 244 247 252 260 292 203 168 157 146 174 195 217 254 256 256 238 158 150
303 298 297 290 286 296 282 243 232 246 237 258 290 282 254 228 233 235 196 151 191 158 152 176 167 164 185 200 197 188 200 202 162 172 188 181 192 205 217 223 227 235 217 200 225 237 202 167 201 224 225 234 232 226 220 209 214 228 234 236 234 224 222 230 229 233 248 245 240 247 243 238 240 241 59 77 83 85 122 201 212 223 246 236 236 228 160 155
298 293 287 274 269 273 265 259 34 15 208 278 289 254 233 209 225 239 176 151 198 165 171 182 169 181 199 216 212 177 187 199 176 181 192 185 191 196 204 211 196 207 218 204 208 224 218 207 208 205 210 224 228 222 211 201 212 225 223 228 235 224 214 225 226 219 233 244 248 256 246 232 230 138 118 111 78 76 79 303 251 242 243 212 205 209 170 164
296 291 284 271 259 253 252 258 284 284 273 291 271 230 232 222 217 234 202 176 140 102 142 171 183 213 214 218 204 177 187 195 178 187 196 194 196 195 206 215 205 210 224 210 206 214 215 213 208 200 197 209 220 218 203 196 206 216 215 219 225 222 218 223 231 230 231 237 244 251 248 235 227 121 111 97 67 57 63 43 315 261 242 182 178 186 179 176
297 289 278 264 250 244 246 251 255 260 265 261 240 213 227 236 217 233 231 171 102 87 167 184 218 226 226 235 203 170 194 195 179 190 193 192 201 198 204 213 211 217 226 214 212 217 220 212 201 203 189 186 208 223 220 207 205 212 218 225 228 228 231 233 236 239 241 244 234 220 225 249 237 145 89 77 67 46 62 86 88 70 180 173 174 164 161 182
302 285 265 250 243 239 234 232 230 236 239 228 226 214 215 233 221 211 229 98 95 176 180 183 231 227 218 232 203 184 218 208 183 194 198 195 206 202 200 208 210 212 217 215 212 219 233 230 196 202 201 188 199 220 231 229 213 205 212 226 233 231 232 244 265 269 274 275 241 211 222 261 130 126 119 110 100 86 90 108 121 143 158 168 174 166 165 184
304 269 233 221 226 224 213 211 206 211 225 220 217 216 213 235 256 201 356 27 38 293 272 215 221 229 215 202 193 201 224 223 194 198 204 202 205 206 204 204 203 207 214 219 214 211 231 237 192 194 206 203 201 210 224 237 235 202 207 221 227 229 232 242 251 251 261 269 258 235 226 158 135 148 151 146 130 120 127 122 126 142 151 162 170 170 171 172
293 235 201 194 195 189 188 190 188 198 223 228 218 229 233 231 307 14 16 350 323 300 281 246 199 218 225 203 194 195 195 206 204 201 205 206 205 204 208 206 198 205 215 221 226 218 231 245 199 191 203 205 207 213 215 225 239 233 218 222 219 223 233 248 249 230 225 243 247 242 237 205 171 179 157 152 137 122 134 130 118 124 135 150 156 155 153 141
280 233 183 150 152 167 175 175 182 195 213 226 229 246 263 237 126 341 354 334 306 270 265 269 189 222 243 222 201 190 183 194 205 205 207 207 201 197 207 209 197 205 214 215 221 218 232 251 207 198 210 200 200 219 215 212 223 232 244 245 235 231 221 214 232 234 231 239 241 240 241 228 99 113 155 170 147 122 130 132 122 121 136 140 127 125 138 138
264 227 156 121 135 159 165 167 182 200 206 219 229 236 249 249 147 317 327 305 286 270 263 275 246 239 253 241 226 198 197 210 209 215 218 205 197 217 236 224 199 206 214 214 219 205 217 251 215 203 217 198 187 212 218 203 207 222 240 241 236 250 239 218 225 234 236 238 239 241 238 210 65 98 147 155 146 143 140 133 134 136 131 113 102 107 124 133
231 212 133 132 143 148 156 170 191 205 204 217 237 222 212 229 196 195 282 277 268 264 273 286 252 232 248 252 250 233 231 233 216 229 235 202 181 213 250 248 212 207 214 217 220 206 201 236 226 207 211 198 184 203 216 208 196 206 226 228 222 231 237 238 245 253 255 251 242 247 239 149 48 47 128 137 131 147 144 132 128 117 99 71 64 65 56 43
217 215 138 152 160 150 159 185 196 201 211 221 246 245 141 273 229 180 185 244 269 267 281 293 277 269 276 268 254 230 235 245 220 221 231 207 200 213 205 239 237 211 210 219 218 207 205 225 230 219 209 206 205 205 212 217 211 205 210 218 223 226 229 232 228 230 245 253 249 245 214 112 25 17 68 112 101 91 111 121 115 96 81 66 54 49 44 37
227 196 141 159 171 165 180 209 193 205 221 207 244 252 90 45 267 226 185 201 238 245 240 261 272 276 273 270 268 247 242 256 237 222 229 216 344 338 144 168 248 229 210 219 215 206 213 232 231 218 216 232 226 208 210 222 229 227 224 222 224 226 235 242 236 226 233 254 269 255 190 116 50 42 62 67 72 64 60 88 97 79 71 73 65 53 47 45
210 136 133 160 178 186 207 218 194 213 223 105 335 223 114 210 230 226 209 204 223 230 221 240 253 254 251 256 280 273 260 268 260 249 240 170 38 324 316 149 238 240 218 223 219 204 208 234 236 222 223 242 227 195 203 224 233 234 231 227 229 231 235 240 247 262 261 278 298 278 228 134 109 78 78 77 81 72 57 63 77 75 75 75 68 59 52 49
183 130 143 169 186 201 223 221 206 204 184 155 251 209 175 240 235 232 231 210 213 230 235 252 251 246 255 257 266 271 274 274 264 260 265 120 136 273 285 222 235 237 214 273 258 202 207 217 224 225 222 221 208 192 200 208 218 232 232 229 234 239 237 230 228 289 282 244 242 260 265 112 131 140 116 107 104 87 65 55 62 65 68 67 63 62 57 46
182 146 156 172 187 209 237 271 275 227 164 178 230 210 191 216 224 262 273 245 232 263 258 260 262 259 264 262 260 264 261 254 258 267 278 84 146 215 218 201 251 259 52 13 350 231 233 232 225 228 226 219 211 212 228 224 218 222 222 224 233 242 246 243 226 234 247 240 246 256 89 107 137 148 139 130 122 104 84 71 66 63 62 63 61 60 62 57
202 158 158 165 185 217 245 276 278 260 186 189 216 220 217 213 182 198 252 244 218 252 263 262 273 268 256 261 265 260 252 238 233 253 257 144 120 153 113 120 73 30 27 1 330 240 239 253 244 244 252 257 254 273 304 315 273 238 218 207 214 241 264 271 249 234 240 252 266 248 141 161 163 151 145 137 127 119 106 89 76 70 64 63 64 64 68 69
237 188 168 167 181 203 223 223 216 225 223 202 208 218 220 220 181 161 208 237 213 232 252 248 262 262 248 259 269 266 265 247 230 249 260 226 143 151 171 110 71 19 352 335 300 253 246 244 240 245 263 274 267 287 307 318 312 288 249 211 207 223 259 268 251 247 274 270 270 90 119 162 161 146 145 134 123 121 111 97 83 74 69 68 71 73 71 69
230 194 150 188 219 186 193 215 196 159 189 207 216 237 219 214 203 171 183 228 212 210 236 231 241 256 253 258 260 255 266 261 244 248 268 268 194 169 178 78 61 22 360 40 44 13 286 254 243 236 238 255 252 249 324 324 316 273 234 215 201 204 235 250 249 262 312 277 223 120 133 156 138 132 131 117 106 100 97 95 88 79 75 75 74 73 72 71
228 189 139 225 268 117 80 48 233 191 198 212 205 220 229 216 209 192 186 224 217 205 233 239 230 242 266 273 261 246 267 276 252 231 302 303 290 232 152 52 30 20 58 59 42 45 38 304 284 246 225 226 247 217 351 304 271 183 121 338 203 187 237 268 292 316 322 60 119 131 133 116 98 109 108 97 94 95 92 86 84 82 80 79 74 71 73 72
247 162 143 199 186 101 92 136 222 203 182 241 214 186 229 229 205 209 216 226 226 214 235 247 236 236 275 290 273 200 56 3 274 281 337 314 293 294 77 157 241 307 66 78 45 50 53 328 333 284 238 210 209 219 186 269 268 225 94 29 2 9 6 15 19 1 350 101 116 121 117 99 87 103 106 104 101 99 94 81 77 75 77 80 76 70 71 69
279 322 285 234 148 121 160 170 209 205 171 203 210 173 206 221 187 225 241 227 230 227 238 252 253 261 266 265 242 112 79 25 345 312 318 297 284 328 354 201 215 247 85 127 129 71 297 291 327 303 261 225 205 217 207 224 272 248 148 39 1 343 13 26 26 21 29 104 140 142 128 121 130 120 111 112 105 95 88 80 77 69 66 75 75 69 68 67
249 256 260 258 140 160 213 173 194 213 158 104 119 154 187 213 183 195 228 241 230 222 249 269 267 273 254 242 241 51 11 342 329 320 306 282 270 290 308 298 299 299 226 152 179 168 174 263 288 290 266 242 202 208 208 218 261 253 165 39 8 346 345 15 45 30 21 34 174 171 115 120 132 129 119 111 96 84 78 74 75 74 67 67 68 65 61 62
Height
811 810 808 807 806 804 803 802 801 800 799 799 798 798 797 796 795 795 794 793 792 790 790 788 787 786 785 784 783 781 779 778 777 775 773 768 767 767 767 768 768 769 771 772 772 773 772 772 771 770 769 767 767 762 760 761 757 762 769 771 766 757 749 740 739 744 746 745 747 747 745 748 747 740 732 728 728 729 731 731 736 742 742 743 746 748 748 749
810 809 808 807 805 804 803 801 800 799 799 799 798 798 796 796 795 794 793 792 791 790 789 788 787 786 785 784 782 781 779 777 775 771 767 766 767 767 766 767 768 769 770 771 771 770 769 769 767 768 767 766 765 760 761 760 760 764 765 767 760 747 744 741 741 745 747 749 750 747 745 747 746 741 735 736 736 731 731 735 745 752 749 746 748 752 752 751
810 809 807 806 805 803 803 801 800 799 799 798 798 797 796 795 794 793 793 792 790 790 789 787 786 785 784 783 781 781 779 777 771 764 762 764 766 765 765 766 767 768 769 769 769 768 767 765 765 766 766 765 761 760 763 761 761 762 761 765 753 741 743 744 745 748 748 749 751 749 746 746 742 738 736 739 739 734 731 738 751 755 753 753 750 752 753 753
809 808 807 806 805 803 802 801 800 799 798 798 797 796 795 794 793 793 792 791 790 789 788 787 785 784 783 782 781 780 780 775 764 758 760 763 764 764 764 765 766 767 768 768 768 767 764 763 764 764 764 764 759 759 763 759 759 758 758 759 746 743 749 746 747 749 749 750 751 750 748 747 740 737 738 738 740 735 730 734 744 750 755 756 751 751 753 753
809 808 807 805 804 803 801 800 799 798 798 797 796 795 793 793 792 792 791 790 789 788 787 786 784 783 782 781 781 780 780 773 759 756 761 762 762 762 762 764 765 766 768 768 767 765 764 762 763 764 764 763 759 761 761 754 755 757 755 752 744 747 752 747 747 750 750 751 751 751 750 746 741 739 737 738 741 736 730 731 735 742 749 751 750 752 753 754
809 807 806 805 804 803 801 799 798 797 797 796 795 793 792 792 791 791 790 790 788 787 786 784 783 782 781 780 780 780 779 769 757 758 761 760 761 760 761 763 764 766 768 767 764 764 763 761 764 766 764 761 759 761 759 751 753 760 754 748 747 749 750 748 748 750 751 752 753 751 748 744 745 744 736 737 739 732 730 730 730 735 741 746 750 752 753 754
808 807 806 805 803 802 800 799 797 797 796 795 794 792 791 790 790 790 789 789 787 786 785 784 783 782 781 779 779 778 774 762 755 759 759 759 760 759 761 762 764 767 767 766 762 762 762 763 764 763 763 761 758 757 755 750 752 760 756 748 748 748 750 749 748 749 750 752 751 748 747 747 749 745 737 737 734 730 731 729 729 734 740 748 751 752 753 753
807 806 805 804 803 801 800 798 797 796 796 795 793 792 790 789 789 789 788 788 786 785 784 783 782 781 781 779 776 771 765 758 756 759 758 758 759 758 761 763 766 767 765 764 760 760 760 762 762 759 762 759 754 755 753 754 755 757 757 750 748 750 750 748 749 749 749 750 748 747 749 748 745 742 740 738 732 731 732 730 732 736 741 748 749 750 751 752
806 805 804 803 802 801 799 797 796 795 795 794 792 790 789 788 787 787 787 786 785 784 783 782 782 781 781 780 775 766 758 756 757 758 758 759 759 760 762 764 766 766 764 762 758 759 759 760 759 755 759 755 752 754 753 758 758 752 753 750 749 750 748 748 749 748 748 747 746 748 750 745 739 740 741 736 732 733 733 733 735 740 746 749 749 749 751 752
805 804 803 802 801 800 798 797 796 794 794 793 791 789 788 786 786 786 785 785 784 783 782 782 781 780 781 779 774 765 756 756 758 758 759 760 760 761 763 764 765 764 761 760 759 759 757 757 755 751 756 755 753 755 752 756 754 748 750 750 749 749 746 748 749 748 747 745 746 750 750 744 737 742 744 734 732 734 734 737 740 745 752 751 750 749 749 752
804 803 802 801 800 799 797 796 795 794 793 791 790 788 787 785 785 784 784 783 782 782 781 781 780 781 780 777 773 764 755 757 759 759 761 761 761 762 762 763 763 762 760 759 759 758 756 755 752 753 759 756 754 756 752 750 749 748 751 753 751 749 747 748 749 748 747 746 744 745 748 744 740 744 740 732 734 735 736 740 742 748 752 749 749 750 750 750
803 802 801 800 799 798 797 795 794 793 791 790 788 786 785 784 783 783 782 782 781 781 780 780 780 780 779 775 768 761 756 758 758 759 761 761 762 762 761 762 762 761 759 758 759 758 757 756 755 758 758 755 755 757 752 745 748 750 753 758 753 749 749 747 746 746 745 745 739 742 752 749 745 744 732 728 734 735 737 741 743 747 749 750 750 752 753 750
802 801 800 799 798 797 796 794 793 791 790 788 787 785 784 782 782 781 780 780 780 779 778 779 779 780 780 770 758 756 757 758 758 759 760 760 761 761 761 762 761 761 759 758 758 758 759 758 758 757 754 756 755 753 750 745 750 754 753 756 754 751 748 740 741 744 744 743 737 747 760 750 738 734 725 725 733 736 739 742 745 747 746 749 752 753 754 751
801 800 799 798 797 796 794 793 792 790 789 787 785 784 782 781 780 779 779 778 778 778 777 778 778 780 779 766 753 755 757 757 759 759 759 759 759 760 761 761 761 761 761 760 759 759 760 760 760 757 754 755 751 749 753 751 753 755 753 754 754 753 744 733 737 744 745 742 737 749 761 746 726 722 723 726 731 736 740 740 744 748 746 746 749 752 754 752
800 799 798 797 796 795 793 792 791 789 788 786 784 782 780 780 779 778 778 777 777 776 776 777 778 778 774 761 752 754 755 756 757 757 758 758 757 759 760 761 762 761 761 761 760 760 761 760 761 761 756 753 752 755 757 755 753 753 757 757 750 749 743 736 738 741 744 741 737 747 757 741 721 720 724 726 729 734 740 741 743 746 746 745 747 749 752 752
799 798 797 796 795 793 792 791 790 788 786 784 782 781 779 779 777 778 777 776 777 776 777 777 775 775 770 757 751 753 754 754 754 755 757 757 757 756 758 761 760 761 762 761 761 761 760 761 760 758 755 754 758 760 756 755 753 749 755 754 744 744 742 739 739 736 738 742 740 745 750 739 726 727 727 726 730 734 740 743 742 744 745 746 747 748 751 752
798 797 796 795 793 792 791 789 788 786 785 783 781 779 778 778 777 777 777 777 777 775 776 774 771 773 765 753 751 750 749 750 751 753 755 756 756 755 756 759 758 760 760 760 761 760 759 761 760 757 755 755 756 756 760 763 758 749 750 749 740 739 739 740 741 736 736 744 744 742 745 738 728 727 729 728 730 734 739 740 741 744 745 745 746 749 752 752
797 796 795 794 792 791 790 788 787 785 783 781 779 778 777 777 777 777 776 776 777 777 777 773 772 772 759 749 748 744 743 748 749 750 753 755 756 755 755 756 756 758 759 761 761 759 760 759 758 759 758 758 755 754 763 760 748 745 748 749 744 740 742 742 741 738 738 745 745 743 745 740 729 724 727 729 730 735 736 735 740 742 742 744 745 750 754 753
796 795 794 793 791 790 788 787 786 784 782 780 778 778 777 777 777 776 775 774 773 770 766 764 765 761 751 744 743 741 742 747 748 749 751 752 755 755 754 755 755 757 760 761 760 758 759 759 760 763 760 758 753 749 751 741 734 738 739 742 743 740 739 737 737 737 739 746 746 745 745 740 734 728 725 727 730 736 735 735 744 744 742 745 747 752 756 757
794 793 793 791 790 789 787 786 784 783 781 779 778 778 775 773 769 768 770 769 764 756 749 751 752 748 744 741 740 743 745 747 747 747 748 750 753 753 752 753 754 757 758 757 758 754 755 762 763 761 754 749 747 744 741 734 737 743 740 740 742 740 738 733 735 737 737 748 748 743 744 739 735 730 723 725 731 737 737 737 743 744 744 744 746 753 757 759
793 792 791 790 789 788 786 785 783 782 780 779 779 776 769 765 763 763 765 760 753 749 746 745 744 743 742 740 739 742 744 746 744 743 747 749 749 752 753 753 757 760 754 750 752 751 755 764 757 749 745 741 741 742 742 743 749 752 748 746 744 743 740 730 734 738 737 749 750 741 744 741 735 731 724 723 732 739 737 736 738 737 740 741 745 752 756 759
792 791 790 789 788 786 785 784 782 781 779 779 779 773 765 765 767 767 766 758 747 744 744 742 742 742 740 741 742 742 743 745 744 742 744 747 748 751 750 751 756 756 750 747 751 757 762 761 750 741 739 738 740 742 745 751 755 755 751 751 748 742 737 730 733 739 738 748 750 742 743 741 732 730 727 723 728 735 732 731 733 731 736 743 745 749 754 758
791 790 789 788 786 786 784 781 781 779 779 778 775 771 767 768 769 768 768 762 749 739 738 739 741 741 741 742 742 744 744 742 742 741 742 745 746 746 747 750 752 749 748 747 751 760 762 752 741 736 736 740 747 748 750 755 757 756 753 752 750 740 738 740 740 740 740 744 747 743 742 740 732 729 728 723 723 728 727 725 726 725 730 738 740 742 749 753
790 789 788 786 785 784 781 780 779 777 777 776 773 770 769 770 770 769 766 760 748 736 732 734 736 737 738 738 739 744 744 739 737 737 738 743 743 743 744 745 748 747 744 744 746 752 748 735 729 732 737 744 752 754 756 759 758 754 751 749 747 738 735 739 742 742 743 744 743 747 752 745 736 735 731 723 721 725 726 725 725 723 723 728 734 741 745 748
789 788 787 785 784 782 780 780 776 775 775 773 771 769 770 771 769 770 768 759 747 735 732 734 735 734 734 737 740 739 741 739 734 731 733 738 738 741 742 739 744 747 741 741 746 748 740 730 729 736 742 747 752 754 754 758 756 751 748 745 743 739 735 738 743 746 752 753 739 742 763 755 732 730 730 723 722 725 727 727 726 725 722 723 731 742 745 745
788 787 786 785 783 781 780 776 773 774 773 769 769 769 771 772 769 771 768 757 742 733 734 736 734 735 734 737 737 737 743 739 729 727 729 735 734 734 741 738 739 742 737 736 743 743 736 731 735 742 746 749 751 751 748 751 757 753 742 736 738 741 743 746 747 749 758 755 734 732 757 757 732 722 721 720 721 723 727 729 726 724 724 723 726 737 746 746
787 786 785 784 782 781 778 773 773 773 769 768 769 770 771 770 770 770 767 760 744 728 731 733 731 734 733 732 732 738 744 733 725 727 726 732 732 730 739 738 737 739 731 734 746 742 734 736 741 743 746 750 750 749 744 743 755 751 735 733 740 743 746 747 747 750 749 744 736 733 745 756 744 725 718 720 723 725 727 728 726 724 723 722 722 729 739 743
786 785 784 783 781 781 779 776 775 770 768 769 769 771 771 769 771 768 766 766 744 720 724 729 729 731 729 730 730 733 733 725 729 730 722 729 731 731 739 735 734 737 728 737 750 740 732 740 744 744 748 749 745 742 737 740 750 743 732 738 742 741 743 742 743 747 742 744 750 739 736 755 753 728 717 721 726 729 726 724 726 725 723 723 722 724 732 738
785 784 783 782 780 779 778 778 775 770 770 770 771 772 770 770 770 764 765 763 735 717 722 727 730 731 728 731 732 729 727 726 730 725 720 730 729 729 738 732 730 734 729 736 742 733 730 735 736 740 746 744 738 734 731 739 745 736 733 740 741 741 742 740 743 742 742 753 758 741 734 754 755 731 720 724 727 729 727 726 728 728 727 727 724 725 733 739
784 783 782 781 779 777 776 775 773 771 771 771 772 770 769 771 766 763 769 756 728 719 722 724 729 727 726 732 732 730 729 727 727 724 725 730 730 729 731 727 728 730 730 734 737 730 727 729 731 736 740 736 733 732 731 736 739 735 738 742 743 743 740 742 742 739 750 761 754 739 732 745 754 740 729 730 730 730 731 733 733 731 732 732 729 728 733 740
782 781 781 780 778 777 775 771 770 770 771 771 771 769 769 767 759 761 761 739 722 723 723 723 725 722 724 728 727 728 729 726 726 729 730 730 733 735 734 733 734 735 734 736 739 733 728 734 737 734 733 732 733 734 731 731 733 738 743 745 748 747 744 749 747 748 766 765 746 733 726 735 752 748 738 736 732 731 736 736 735 736 735 733 732 731 735 742
780 779 779 778 777 776 773 769 769 771 771 770 770 767 766 764 759 755 742 728 728 727 720 721 722 720 722 722 721 723 726 726 724 727 730 731 733 735 736 736 736 743 744 738 739 737 732 733 733 732 731 730 736 738 734 734 736 740 742 747 756 759 761 767 763 760 767 758 738 725 725 733 742 742 739 736 734 735 736 736 735 737 736 735 736 736 738 743
778 777 776 775 774 773 771 769 771 771 770 770 769 763 761 763 758 741 727 725 729 723 717 720 720 719 721 721 719 718 721 723 722 724 725 726 731 732 732 727 725 736 739 735 740 744 741 735 728 732 733 728 733 739 741 741 740 742 742 747 757 763 774 782 772 762 759 750 733 721 729 740 740 742 740 736 738 738 736 736 736 736 737 738 740 741 743 745
775 773 772 772 771 770 769 770 770 770 770 770 766 761 765 766 749 731 722 720 722 722 721 723 722 721 722 719 713 712 719 721 717 721 723 723 730 732 729 726 721 724 729 735 741 741 746 745 732 730 731 728 730 730 730 731 734 737 732 735 745 750 764 775 767 763 760 749 736 730 740 745 744 750 745 737 740 739 737 739 738 740 740 741 742 744 748 751
770 769 769 768 768 767 767 769 769 770 770 767 761 759 765 761 739 727 725 719 721 725 722 721 723 725 722 716 711 708 715 719 715 717 721 722 727 727 724 723 719 718 726 737 739 734 741 741 724 720 721 722 728 724 717 723 732 730 724 733 741 735 742 754 754 754 757 755 745 737 738 737 741 751 745 740 744 742 742 742 741 746 745 744 746 746 749 753
767 766 766 766 766 765 765 768 768 769 768 763 760 758 753 742 728 724 726 724 727 728 726 725 724 725 722 715 714 713 712 717 717 717 719 718 719 718 716 715 714 716 722 729 733 734 742 737 718 717 720 715 721 722 717 724 731 727 728 735 730 720 728 746 752 747 754 766 754 735 736 741 747 753 746 744 747 746 747 747 745 748 747 746 748 747 748 749
767 764 763 762 763 763 764 766 766 768 766 760 759 754 739 729 727 728 730 729 730 729 730 729 722 722 721 713 713 715 714 718 718 717 719 718 715 713 711 709 708 711 714 719 727 728 737 739 719 716 724 716 713 718 717 718 722 727 733 726 718 719 724 737 753 754 759 769 754 735 736 741 748 757 753 748 750 751 752 752 751 751 751 752 750 748 748 749
767 762 760 759 761 762 763 765 766 765 763 759 757 750 737 730 731 732 733 732 732 731 732 729 722 720 719 714 713 711 714 723 722 717 720 720 715 707 706 707 706 708 707 712 723 723 729 742 727 713 721 717 710 718 723 718 715 722 724 715 720 736 739 741 755 762 764 767 757 739 730 735 750 760 758 753 753 755 757 757 758 759 758 756 754 754 753 751
766 761 758 758 760 761 762 764 764 762 760 758 755 747 738 734 733 733 735 735 734 734 733 728 724 724 721 717 714 711 714 722 722 720 721 722 721 712 705 706 707 708 707 708 719 721 726 743 738 717 713 714 715 723 730 725 718 717 719 716 720 731 737 738 742 747 754 762 760 745 737 750 762 759 757 757 753 753 759 762 762 762 760 755 755 758 758 756
763 758 757 759 761 761 762 763 761 759 757 752 746 739 734 733 734 734 735 735 735 734 733 729 727 729 725 718 716 716 717 718 720 726 723 716 723 724 712 708 710 711 710 709 713 718 725 740 742 725 713 717 724 724 722 721 719 722 727 729 726 724 726 732 737 739 740 749 755 749 752 765 762 753 756 756 753 753 757 762 763 761 760 759 759 761 763 763
759 756 756 759 761 760 761 761 757 753 750 745 739 735 736 736 735 735 735 737 736 732 732 733 731 730 728 725 721 718 719 719 718 725 723 714 722 728 716 712 713 711 713 714 714 720 729 736 740 735 726 724 722 713 708 709 711 717 724 726 725 724 727 738 749 742 733 742 750 746 761 775 759 749 753 750 754 758 755 758 764 763 764 766 766 766 767 769
757 755 753 757 760 759 760 757 750 745 741 739 737 735 739 741 738 736 735 737 737 733 732 735 734 732 731 729 725 719 721 722 718 720 723 720 727 730 719 714 715 712 715 720 718 719 726 731 737 737 730 722 713 704 703 705 704 708 712 713 715 719 725 738 751 747 737 745 743 729 749 773 761 750 756 758 761 764 761 762 767 770 770 769 770 771 770 771
754 754 753 757 758 757 759 755 747 742 739 737 737 736 738 741 740 738 736 736 737 735 735 735 733 734 731 729 728 725 725 726 723 721 720 723 734 735 720 717 719 715 716 725 725 721 725 734 738 735 730 723 713 705 705 707 709 714 712 709 712 715 718 728 741 743 739 747 751 742 751 769 765 757 763 766 765 767 768 769 770 773 773 770 771 773 772 773
748 751 753 755 757 756 758 754 744 739 740 742 743 739 739 741 739 738 737 736 736 736 738 736 732 732 731 729 731 728 727 732 730 722 718 728 742 739 724 721 722 718 721 732 734 729 731 738 739 740 743 741 733 726 720 715 716 719 716 711 711 712 717 726 734 742 745 746 750 753 757 766 767 763 765 767 768 772 774 774 774 775 773 771 773 774 775 776
746 750 751 751 754 755 754 748 740 736 739 747 747 742 742 742 739 740 739 737 736 737 739 737 732 732 732 730 732 729 726 731 733 726 721 729 736 730 724 725 723 723 729 734 732 731 735 735 734 740 747 749 753 750 740 729 722 718 716 716 717 717 721 727 732 746 755 746 737 741 755 768 770 766 767 769 771 777 779 778 778 777 775 775 776 777 778 780
745 748 751 751 751 751 748 744 741 740 740 746 748 744 744 744 740 741 741 740 739 738 739 738 734 734 735 733 735 734 727 725 729 728 725 732 737 730 724 726 727 729 734 735 732 732 738 737 734 739 742 743 749 749 740 735 731 724 718 720 725 726 726 729 733 741 747 745 743 745 754 770 774 769 768 770 772 778 781 781 781 780 780 781 782 783 783 783
746 744 747 749 749 749 747 741 739 741 741 743 746 745 744 743 740 741 743 741 739 739 739 738 736 738 739 738 740 739 732 726 728 729 727 732 743 741 729 726 731 735 735 734 731 733 744 746 739 740 745 740 737 738 735 734 739 740 736 731 730 732 737 743 742 736 736 746 755 753 754 764 769 767 770 773 775 779 781 783 785 785 785 787 788 788 788 787
746 741 739 743 744 744 745 739 736 741 744 743 746 747 745 744 742 743 745 741 739 739 742 742 739 737 737 737 740 742 739 735 734 734 732 730 738 745 738 731 735 738 736 735 736 742 755 756 743 741 746 741 735 736 736 737 741 748 750 743 736 739 748 751 743 734 737 748 757 760 762 764 764 767 773 778 781 784 785 786 787 788 789 790 791 792 792 792
742 739 738 741 742 741 743 742 740 743 745 744 746 748 747 745 744 742 742 742 742 739 741 745 742 736 734 735 736 741 746 747 744 743 742 737 738 742 744 745 745 740 737 742 744 746 757 763 756 749 747 745 742 739 740 745 745 743 745 743 739 742 747 746 742 741 743 748 754 761 768 772 773 777 781 784 787 789 789 788 789 790 791 792 794 796 796 796
742 740 740 741 741 742 745 745 744 745 747 747 748 748 746 745 745 743 740 743 748 744 741 745 741 735 736 737 736 743 749 750 749 748 747 747 744 742 749 760 757 745 741 748 749 748 755 762 761 757 753 749 748 743 742 752 754 746 746 749 745 744 746 748 750 750 750 753 757 762 772 783 787 785 787 790 791 791 793 793 794 794 794 795 798 800 801 800
744 742 741 739 740 744 746 745 744 745 747 748 748 748 748 747 747 748 743 740 744 746 743 743 742 739 740 741 740 745 747 746 748 747 744 745 745 743 747 752 749 746 746 750 751 752 756 758 756 760 762 755 749 747 745 751 756 751 752 760 759 752 750 754 757 757 759 764 766 764 768 780 788 789 791 793 793 794 797 798 800 802 801 801 802 803 804 804
745 744 742 740 743 746 744 742 743 743 744 747 748 748 751 748 744 748 751 744 739 741 742 744 746 746 747 747 746 747 747 746 745 743 740 740 739 739 743 742 740 743 746 748 751 752 756 759 758 764 770 762 751 748 749 754 761 763 766 771 770 763 758 758 761 764 764 765 767 765 766 777 787 791 794 797 799 801 803 803 805 807 807 807 807 806 807 806